Regional Weather Roundup
Issued by NWS

Home | Current Version | Previous Version | Text Only | Print | Product List | Glossary Off
Versions: 1 2 3 4 5 6 7 8 9 10 11 12 13 14 15 16 17 18 19 20 21 22 23 24 25 26 27 28 29 30 31 32 33 34 35 36 37 38 39 40 41 42 43 44 45 46 47 48 49 50

000
ASUS45 KTFX 152010
RWRMT
MONTANA REGIONAL WEATHER ROUNDUP
NATIONAL WEATHER SERVICE GREAT FALLS MT
200 PM MDT TUE AUG 15 2017

NOTE: "FAIR" INDICATES FEW OR NO CLOUDS BELOW 12000 FEET WITH NO
SIGNIFICANT WEATHER AND/OR OBSTRUCTIONS TO VISIBILITY.

MTZ001>007-043-152100-
WEST OF THE DIVIDE

CITY           SKY/WX    TMP DP  RH WIND       PRES   REMARKS
KALISPELL      SUNNY     74  40  29 CALM      29.90F
MISSOULA       SUNNY     77  33  20 NW7       29.91F
BUTTE          SUNNY     71  27  19 CALM      29.99F
MULLAN PASS    SUNNY     62  28  27 VRB5      30.05S
ANACONDA         N/A     72  34  25 NE7       29.95F
DEER LODGE       N/A     72  28  20 NE3       29.98F
EUREKA           N/A     75  37  25 MISG      29.90F
HAMILTON         N/A     72  41  33 NW9       29.92F
LIBBY            N/A     77  36  22 SW3       29.88F
RONAN            N/A     74  38  27 SE5       29.98F
$$

MTZ008-052>055-152100-
SOUTHWEST MONTANA

CITY           SKY/WX    TMP DP  RH WIND       PRES   REMARKS
BOZEMAN        SUNNY     74  42  31 W8        29.95F
DILLON         SUNNY     75  33  21 VRB3      29.95F
W YELLOWSTONE  CLOUDY    64  43  45 SW9       30.05F
ENNIS          SUNNY     72  41  33 VRB6      30.02F
THREE FORKS      N/A     76  39  26 SE6       29.94F
$$

MTZ009-010-012-014-046-048-049-054-152100-
EAST SLOPES AND CENTRAL MONTANA

CITY           SKY/WX    TMP DP  RH WIND       PRES   REMARKS
CUT BANK       SUNNY     74  32  21 VRB6      29.88F
GREAT FALLS    SUNNY     75  31  19 MISG      29.90F
MALMSTROM AFB  SUNNY     74  35  23 NW5       29.90F
HELENA         SUNNY     77  32  19 W6        29.90F
AUGUSTA          N/A     72  31  22 SE9G17    29.90F
BOWMANS CRNR     N/A     72  32  22 S9        29.89F
CHOTEAU          N/A     75  30  19 SW8       29.91F
FAIRFIELD        N/A     74  33  22 SW3       29.89F
POWER            N/A     74  32  21 SW9       29.90F
RAYNESFORD       N/A     74  31  20 NW7       29.91F
ULM              N/A     75  33  22 NW5       29.89F
$$

MTZ011-013-016-021-045-047-050-051-152100-
NORTH CENTRAL MONTANA

CITY           SKY/WX    TMP DP  RH WIND       PRES   REMARKS
HAVRE          SUNNY     73  39  29 VRB3      29.88F
LEWISTOWN      SUNNY     73  35  25 CALM      29.92F
N BAR RANCH      N/A     72  37  28 NE10      29.97S
CHINOOK          N/A     73  41  31 NW3       29.88F
DENTON           N/A     74  38  27 N8        29.88F
GEYSER         PTSUNNY   73  37  26 N5        29.92F
GRASS RANGE      N/A     74  36  25 NE12G17   29.89F
JUDITH GAP       N/A     73  36  25 CALM      29.93F
WINIFRED         N/A     74  38  27 NE15      29.91F
$$

MTZ017>020-022>027-061-062-152100-
NORTHEAST MONTANA

CITY           SKY/WX    TMP DP  RH WIND       PRES   REMARKS
GLASGOW        CLOUDY    79  45  29 E9G18     29.84F
JORDAN           N/A     78  48  34 N12       29.87F
SIDNEY         CLOUDY    73  61  65 CALM      29.85S
WOLF POINT     PTSUNNY   75  59  57 CALM      29.84F
MALTA          SUNNY     77  37  24 VRB5G15   29.87S
POPLAR           N/A     73  57  56 CALM      29.85S
$$

MTZ028>42-056>058-152100-
SOUTHCENTRAL AND SOUTHEAST MONTANA

CITY           SKY/WX    TMP DP  RH WIND       PRES   REMARKS
BAKER          CLOUDY    64  63  96 SE5       29.89S
BILLINGS       MOSUNNY   75  46  35 NE9       29.91S
LIVINGSTON     SUNNY     76  38  25 MISG      29.92F
MILES CITY     CLOUDY    75  49  39 VRB3      29.87S
BIG TIMBER     SUNNY     75  36  23 CALM      29.95F
FORSYTH          N/A     79  46  31 CALM      29.86F
HARLOWTON        N/A     78  31  18 MISG      29.91F
LAUREL           N/A     78  46  32 NE3       29.90S
$$

REGIONAL REPORTS...DAKOTAS

CITY           SKY/WX    TMP DP  RH WIND       PRES   REMARKS
WILLISTON      PTSUNNY   73  60  63 CALM      29.85F
MINOT          CLOUDY    67  63  87 SE6       29.86S
DICKINSON      CLOUDY    66  61  84 CALM      29.85R
BEACH          CLOUDY    68  63  83 CALM      29.90S
CROSBY           N/A     75  55  50 VRB5      29.84S
TIOGA          PTSUNNY   70  66  88 S7        29.88S
WATFORD CITY   PTSUNNY   68  63  83 VRB7      29.86R
BISMARCK       LGT RAIN  67  64  90 E8        29.84S
GRAND FORKS    CLOUDY    76  61  59 S12       29.90S
FARGO          CLOUDY    74  59  59 SE13G20   29.91S
BUFFALO SD       N/A     70  61  73 W10       29.81S
RAPID CITY     CLOUDY    73  60  63 N9        29.86R
$$

REGIONAL REPORTS...WYOMING/IDAHO/WASHINGTON

CITY           SKY/WX    TMP DP  RH WIND       PRES   REMARKS
GILLETTE       CLOUDY    63  56  78 NW16      29.96R
SHERIDAN       CLOUDY    69  46  43 N8        29.96F
BUFFALO WY     CLOUDY    65  45  48 N8        30.01F
CODY           SUNNY     68  42  38 CALM      29.99F
YELLOWSTONE LA   N/A     58  43  57 VRB5      30.12F
IDAHO FALLS    CLOUDY    70  48  45 VRB5      30.00F
SALMON         SUNNY    N/A N/A N/A N9        29.91F
BOISE          SUNNY     83  43  24 N7        29.89F
SPOKANE        PTSUNNY   76  36  23 VRB3      29.92F
$$

REGIONAL REPORTS...ALBERTA

CITY           SKY/WX    TMP DP  RH WIND       PRES   REMARKS
EDMONTON       SUNNY     66  41  39 W17       29.78S
CALGARY        MOSUNNY   64  37  36 S8        29.88F SMOKE
LETHBRIDGE     SUNNY     72  37  28 VRB2      29.87F
MEDICINE HAT   MOSUNNY   70  43  37 SW6       29.87F
$$

REGIONAL REPORTS...SASKATCHEWAN

CITY           SKY/WX    TMP DP  RH WIND       PRES   REMARKS
SWIFT CURRENT  SUNNY     68  46  45 W13G24    29.87F
REGINA         CLOUDY    72  48  43 NW9       29.84S
SASKATOON      PTSUNNY   64  46  52 SW18G25   29.80R
$$



USA.gov is the U.S. government's official web portal to all federal, state and local government web resources and services.